Mankato, MN

11:35 AM CST on November 15, 2019 (GMT -0600)
Mankato Regional

Weather History for KMKT - September, 2019

Change the Weather History Date:

Monday, September 9, 2019

  Actual Average Record
Temperature  
Mean Temperature 63 °F -  
Max Temperature 70 °F 73 °F 93 °F (2013)
Min Temperature 57 °F 53 °F 37 °F (2008)
Degree Days  
Heating Degree Days 2    
Growing Degree Days 13 (Base 50)    
Moisture  
Dew Point 63 °F    
Average Humidity 98    
Maximum Humidity 100    
Minimum Humidity 94    
Precipitation  
Precipitation 0.11 in - - ()
Sea Level Pressure  
Sea Level Pressure 29.94 in    
Wind  
Wind Speed 11 mph ()    
Max Wind Speed 18 mph    
Max Gust Speed 26 mph    
Visibility 7.9 miles    
Events Rain , Thunderstorm    
Averages and records for this station are not official NWS values.
T = Trace of Precipitation, MM = Missing Value Source: Averaged Metar Reports

Daily Weather History Graph

Daily Weather History Graph

Search for Another Location

Airport or City:

Astronomy

Sep. 09, 2019 Rise Set
Actual Time 6:47 AM CDT 7:37 PM CDT
Civil Twilight 6:18 AM CDT 8:06 PM CDT
Nautical Twilight 5:43 AM CDT 8:41 PM CDT
Astronomical Twilight 5:06 AM CDT 9:18 PM CDT
Moon 5:43 PM CDT (9/9) 2:08 AM CDT (9/9)
Length of Visible Light 13h 48m
Length of Day
12h 50m
Waxing Gibbous, 83% of the Moon is Illuminated
Sep 9
Waxing Gibbous
Sep 13
Full
Sep 21
Last Quarter
Sep 28
New
Oct 5
First Quarter

Hourly Weather History & Observations

Time (CDT) Temp. Dew Point Humidity Pressure Visibility Wind Dir Wind Speed Gust Speed Precip Events Conditions
12:03 AM 57.2 °F 57.2 °F 100% 30.11 in 10.0 mi ESE 10.4 mph - 0.00 in Rain Light Rain
12:56 AM 57.9 °F 57.9 °F 100% 30.12 in 9.0 mi ESE 9.2 mph - 0.00 in Rain Light Rain
1:56 AM 57.9 °F 57.9 °F 100% 30.10 in 10.0 mi ESE 11.5 mph - 0.00 in   Overcast
2:56 AM 57.9 °F 57.9 °F 100% 30.10 in 10.0 mi ESE 11.5 mph - N/A   Overcast
3:56 AM 57.9 °F 57.9 °F 100% 30.08 in 10.0 mi ESE 10.4 mph - N/A   Overcast
4:56 AM 59.0 °F 57.9 °F 96% 30.07 in 10.0 mi ESE 13.8 mph - N/A   Overcast
5:56 AM 59.0 °F 59.0 °F 100% 30.06 in 8.0 mi ESE 11.5 mph - N/A   Overcast
6:56 AM 59.0 °F 59.0 °F 100% 30.06 in 10.0 mi ESE 13.8 mph - N/A   Overcast
7:56 AM 59.0 °F 59.0 °F 100% 30.05 in 10.0 mi ESE 13.8 mph - N/A   Overcast
8:56 AM 59.0 °F 57.9 °F 96% 30.02 in 10.0 mi ESE 17.3 mph - N/A   Overcast
9:15 AM 59.0 °F 57.2 °F 94% 30.01 in 10.0 mi ESE 15.0 mph - N/A   Overcast
9:56 AM 59.0 °F 57.9 °F 96% 30.01 in 10.0 mi ESE 16.1 mph 24.2 mph N/A   Overcast
10:56 AM 59.0 °F 59.0 °F 100% 30.01 in 5.0 mi ESE 16.1 mph - 0.01 in Rain Light Rain
11:56 AM 60.1 °F 59.0 °F 96% 29.99 in 10.0 mi ESE 18.4 mph - 0.03 in Rain Light Rain
12:56 PM 62.1 °F 61.0 °F 96% 29.96 in 10.0 mi ESE 18.4 mph - 0.00 in   Overcast
1:56 PM 63.0 °F 62.1 °F 97% 29.96 in 10.0 mi SSE 18.4 mph 25.3 mph 0.00 in   Overcast
2:56 PM 63.0 °F 63.0 °F 100% 29.91 in 10.0 mi SE 16.1 mph 26.5 mph 0.01 in Rain Light Rain
3:56 PM 64.0 °F 64.0 °F 100% 29.91 in 6.0 mi SSE 9.2 mph - 0.00 in Rain Light Rain
4:18 PM 64.4 °F 64.4 °F 100% 29.91 in 7.0 mi South 5.8 mph - 0.00 in Rain , Thunderstorm Light Rain
4:29 PM 64.4 °F 64.4 °F 100% 29.88 in 2.5 mi SE 12.7 mph - 0.06 in Rain , Thunderstorm Thunderstorms and Rain
4:35 PM 64.4 °F 64.4 °F 100% 29.88 in 4.0 mi SSE 15.0 mph - 0.06 in Rain Light Rain
4:56 PM 64.9 °F 64.9 °F 100% 29.86 in 6.0 mi SE 12.7 mph - 0.06 in Rain Light Rain
5:56 PM 66.9 °F 66.0 °F 97% 29.83 in 6.0 mi SE 16.1 mph - 0.00 in   Overcast
6:53 PM 68.0 °F 66.2 °F 94% 29.83 in 7.0 mi SSE 12.7 mph - N/A   Overcast
6:56 PM 68.0 °F 66.9 °F 96% 29.83 in 7.0 mi SSE 9.2 mph - N/A   Overcast
7:22 PM 68.0 °F 68.0 °F 100% 29.83 in 6.0 mi SSE 10.4 mph 18.4 mph N/A   Overcast
7:56 PM 69.1 °F 68.0 °F 96% 29.82 in 5.0 mi SSE 10.4 mph - N/A   Overcast
8:03 PM 69.8 °F 68.0 °F 94% 29.82 in 6.0 mi SSE 11.5 mph - N/A   Overcast
8:56 PM 69.1 °F 69.1 °F 100% 29.80 in 6.0 mi SSE 13.8 mph - N/A   Mostly Cloudy
9:02 PM 69.8 °F 69.8 °F 100% 29.80 in 6.0 mi SSE 11.5 mph - N/A   Scattered Clouds
9:56 PM 69.1 °F 69.1 °F 100% 29.81 in 5.0 mi SSE 9.2 mph - N/A   Scattered Clouds
10:56 PM 69.1 °F 69.1 °F 100% 29.82 in 8.0 mi South 5.8 mph - N/A   Clear
11:56 PM 68.0 °F 68.0 °F 100% 29.82 in 10.0 mi South 8.1 mph - N/A   Clear